Погода в Бизерте

Тунис     37°16′53″N   9°51′24″E
темп.,
°C
ветер,
м/с
пор.,
м/с
влажн.,
%
обл.,
%
осадки,
мм/ч
давл.,
гПа
погр.,
м
7 августа, вс
вс701:00+27з610760 0.0 1013455
04:00+26зсз79780 0.0 1013549
07:00+27зсз78730 0.0 1014684
10:00+29зсз89642 0.0 1014779
13:00+30сз89610 0.0 1013793
16:00+30сз78590 0.0 1013640
19:00+28зсз68710 0.0 1012520
22:00+27зсз69770 0.0 1013463
8 августа, пн
пн801:00+27з710800 0.0 1013486
04:00+26зсз79850 0.0 1013529
07:00+27з78804 0.0 1013506
10:00+29зсз88670 0.0 1014730
13:00+30сз77590 0.0 1014692
16:00+30сз77580 0.0 1014594
19:00+28сз57650 0.0 1014474
22:00+26зсз35760 0.0 1016245
9 августа, вт
вт901:00+26з35760 0.0 1015218
04:00+25юз34780 0.0 1014166
07:00+26з46710 0.0 1015318
10:00+30сз66560 0.0 1016730
13:00+31ссз55500 0.0 1015748
16:00+30с55510 0.0 1015623
19:00+28с33610 0.0 1014272
22:00+26ссв12700 0.0 1016204
10 августа, ср
ср1001:00+25юз22740 0.0 1015109
04:00+24з23740 0.0 1015147
07:00+26зсз34700 0.0 1015338
10:00+29ссз44560 0.0 1016843
13:00+29с54570 0.0 1015888
16:00+29ссв55570 0.0 1015815
19:00+28ссв46690 0.0 1014620
22:00+27св46710 0.0 1015436
11 августа, чт
чт1101:00+26всв23730 0.0 1015300
04:00+25зюз22790 0.0 101594
07:00+25зсз11760 0.0 1015177
10:00+28ссв33610 0.0 1016761
13:00+30св54550 0.0 1015887
16:00+29св54570 0.0 1014730
19:00+27всв44660 0.0 1014368
22:00+26вюв33710 0.0 1015242